Lexington Weather

Lexington, Massachusetts, USA

76°F
7/25/2024 11:14am 
  • Lexington Conditions: Mostly cloudy
  • Temperature: 76.3°F / 24.6°CWarmer 1.3°F than last hour.
  • Dew Point: 72.1°FIncreased 0.1°Fsince last hour.
  • Relative Humidity: 87%Decreased 3.0% since last hour.
  • Wind: Wind from W W 2 mph, 10-min avg: 2 mph, gust: 8 mph
  • Barometer: 29.95 inFalling 0.02  inHg/hr Falling Slowly
  • Visibility: 10 miles
  • Rain Today: 0.00 in
  •   

Regional Weather Roundup
for Boston, MA

        
000
ASUS41 KBOX 230710
RWRBOX

REGIONAL WEATHER ROUNDUP
NATIONAL WEATHER SERVICE BOSTON/NORTON MA
300 AM EDT TUE JUL 23 2024

NOTE:  "FAIR" INDICATES FEW OR NO CLOUDS BELOW 12,000 FEET WITH NO 
SIGNIFICANT WEATHER AND/OR OBSTRUCTIONS TO VISIBILITY.

MAZALL-230800-
EASTERN MASSACHUSETTS
  
CITY           SKY/WX    TMP DP  RH WIND       PRES   REMARKS
BOSTON         LGT RAIN  68  68 100 SE5       30.02S                  
BEVERLY        MOCLDY    72  70  93 SE6       30.00F                  
LAWRENCE       PTCLDY    74  70  87 CALM      30.02F                  
BEDFORD        LGT RAIN  73  70  90 S8        30.00F                  
NORWOOD        LGT RAIN  74  72  93 CALM      30.01F                  
MARSHFIELD     CLOUDY    72  68  88 CALM      30.02S                  
PLYMOUTH       CLOUDY    73  67  81 SE3       30.02S                  
TAUNTON        LGT RAIN  74  69  85 CALM      30.01S                  
NEW BEDFORD    LGT RAIN  73  70  90 CALM      30.01S                  
$$

MAZALL-230800-
CAPE COD AND THE ISLANDS
  
CITY           SKY/WX    TMP DP  RH WIND       PRES   REMARKS
FALMOUTH       MOCLDY    72  70  94 S8        30.04F                  
HYANNIS        LGT RAIN  72  68  87 S8        30.01F                  
CHATHAM        CLOUDY    69  66  90 VRB6      30.03F                  
PROVINCETOWN   LGT RAIN  73  70  90 SE6       30.03F                  
NANTUCKET      LGT RAIN  69  67  93 SE14        N/A                   
MARTHAS VNYRD  LGT RAIN  72  69  90 SE10      30.01F                  
$$
 
MAZALL-230800-
CENTRAL AND WESTERN MASSACHUSETTS
  
CITY           SKY/WX    TMP DP  RH WIND       PRES   REMARKS
WORCESTER      LGT RAIN  72  70  93 S8        30.03F                  
FITCHBURG      PTCLDY    73  70  90 SE3       30.01F                  
ORANGE           N/A     72  70  93 CALM      30.02F                  
SPRINGFIELD    LGT RAIN  72  70  94 SE5       29.97S                  
WESTFIELD      LGT RAIN  71  69  93 SW5       29.99S                  
NORTH ADAMS    LGT RAIN  69  66  90 CALM      30.01S                  
PITTSFIELD     LGT RAIN  68  66  93 CALM      30.02S                  
$$
 
RIZALL-230800-
RHODE ISLAND
  
CITY           SKY/WX    TMP DP  RH WIND       PRES   REMARKS
PROVIDENCE     CLOUDY    74  70  87 S9        30.01F                  
NEWPORT        LGT RAIN  71  70  96 VRB5      30.01F                  
BLOCK ISLAND   LGT RAIN  70  66  87 SE8         N/A                   
SMITHFIELD     LGT RAIN  70  32  24 CALM      30.03S                  
WESTERLY       LGT RAIN  72  69  90 SE5       30.00S                  
$$
 
CTZALL-230800-
CONNECTICUT
  
CITY           SKY/WX    TMP DP  RH WIND       PRES   REMARKS
BRADLEY INTL   LGT RAIN  74  70  87 W6        29.99F                  
HARTFORD       CLOUDY    73  71  93 CALM      29.99S                  
PLAINVILLE     LGT RAIN  71  71 100 SW3       30.00S                  
BRIDGEPORT     CLOUDY    73  68  84 SE7       29.98S                  
DANBURY        LGT RAIN  70  67  90 NE3       30.01S                  
GROTON         LGT RAIN  73  71  93 SE8       29.99S                  
NEW HAVEN      CLOUDY    75  71  87 SE7       29.99S                  
CHESTER        MOCLDY    72  72 100 VRB6      30.00F                  
MERIDEN        LGT RAIN  72  68  87 N3        29.99F                  
WILLIMANTIC    LGT RAIN  73  71  93 CALM      30.00F                  
OXFORD         HVY RAIN  68  68 100 CALM      30.03S FOG              
$$

MEZ002-015-021-024-NHZ003-005-008-011-012-014-VTZ005-008-230800-
NORTHERN NEW ENGLAND
  
CITY           SKY/WX    TMP DP  RH WIND       PRES   REMARKS
PORTLAND ME    MOCLDY    67  66  97 CALM      30.01S                  
BANGOR ME      MOCLDY    63  61  93 CALM      30.04S                  
CONCORD NH     PTCLDY    72  66  81 S5        30.00F                  
MANCHESTER NH  CLOUDY    74  67  78 S5        29.99F                  
NASHUA NH      MOCLDY    73  73 100 CALM      30.01F                  
PORTSMOUTH NH  CLOUDY    71  66  84 S6        29.99F                  
JAFFREY NH     MOCLDY    72  68  87 S3        30.04F                  
KEENE NH       CLOUDY    70  67  90 CALM      30.01F                  
BURLINGTON VT  MOCLDY    71  65  81 CALM      29.98S                  
MT. WASHINGTON TSTM      50  50 100 W26         N/A  VSB 0            
$$

NYZ052-076-230800-
EASTERN NEW YORK
  
CITY           SKY/WX    TMP DP  RH WIND       PRES   REMARKS
ALBANY         LGT RAIN  72  69  90 CALM      29.99S                  
NEW YORK CITY  CLOUDY    70  67  90 NE6       29.97R                  
$$
 
ANZALL-230800-
MARINE OBSERVATIONS
  
STATION/POSITION TIME  TEMP    WIND        PRES    VSBY  WAVE
                       AIR SEA DIR/SP/G                  HT/PER
                 (UTC) (F)     (DEG/KT/KT) (MB)    (MI)  (FT/S)
BOSTON BUOY      0650   69 67  160/  6/  8 1016.5F         1/ 8
BUZZARDS BAY     0600   72     140/ 17/ 18 1016.1F
NANTUCKET SOUND  0650   74 76  150/ 17/ 19 1015.7F         2/ 3
MASS BAY-STELLWA 0504   67 63  180/  8/  8 1017.2F  1 7/8  1/11
ISLE OF SHOALS   0600   70     180/ 14/ 14 1015.8F
S OF BLOCK IS    0656      74                N/A           3/ 5
$$

......................KEY.........................
  SKY/WX - SKY CONDITION/PRESENT WEATHER
  TMP    - TEMPERATURE IN FAHRENHEIT
  DWPT   - DEWPOINT IN FAHRENHEIT
  RH     - RELATIVE HUMIDITY IN PERCENT
  WIND   - DIRECTION AND SPEED IN MPH
  PRES   - MEAN SEA LEVEL PRESSURE IN INCHES OF HG
  WCI    - WIND CHILL INDEX
  VSB    - VISIBILITY IN MILES
  HX     - HEAT INDEX
  TC     - TEMPERATURE IN CELSIUS
  VRB    - VARIABLE WIND DIRECTION
  N/A    - NOT AVAILABLE
  
      

Other recent Regional Weather Roundups

Thu Jul 25, 11:10am EDT

Thu Jul 25, 10:10am EDT

Thu Jul 25, 9:10am EDT

Thu Jul 25, 8:10am EDT

Thu Jul 25, 7:10am EDT

Thu Jul 25, 6:10am EDT

Thu Jul 25, 5:10am EDT

Thu Jul 25, 4:10am EDT

Thu Jul 25, 3:10am EDT

Thu Jul 25, 2:10am EDT

Thu Jul 25, 1:10am EDT

Thu Jul 25, 12:10am EDT

Wed Jul 24, 11:10pm EDT

Wed Jul 24, 10:10pm EDT

Wed Jul 24, 9:10pm EDT

Wed Jul 24, 8:10pm EDT

Wed Jul 24, 7:10pm EDT

Wed Jul 24, 6:10pm EDT

Wed Jul 24, 5:10pm EDT

Wed Jul 24, 4:10pm EDT

Wed Jul 24, 3:10pm EDT

Wed Jul 24, 2:10pm EDT

Wed Jul 24, 1:10pm EDT

Wed Jul 24, 12:10pm EDT

Wed Jul 24, 11:10am EDT

Wed Jul 24, 10:10am EDT

Wed Jul 24, 9:10am EDT

Wed Jul 24, 8:10am EDT

Wed Jul 24, 7:10am EDT

Wed Jul 24, 6:10am EDT

Wed Jul 24, 5:10am EDT

Wed Jul 24, 4:10am EDT

Wed Jul 24, 3:10am EDT

Wed Jul 24, 2:10am EDT

Wed Jul 24, 1:10am EDT

Wed Jul 24, 12:10am EDT

Tue Jul 23, 11:10pm EDT

Tue Jul 23, 10:10pm EDT

Tue Jul 23, 9:10pm EDT

Tue Jul 23, 8:10pm EDT

Tue Jul 23, 7:10pm EDT

Tue Jul 23, 6:10pm EDT

Tue Jul 23, 5:10pm EDT

Tue Jul 23, 4:10pm EDT

Tue Jul 23, 3:10pm EDT

Tue Jul 23, 2:10pm EDT

Tue Jul 23, 1:10pm EDT

Tue Jul 23, 12:10pm EDT

Tue Jul 23, 11:10am EDT

Tue Jul 23, 10:10am EDT

Tue Jul 23, 10:10am EDT

Tue Jul 23, 9:10am EDT

Tue Jul 23, 8:10am EDT

Tue Jul 23, 7:10am EDT

Tue Jul 23, 6:10am EDT

Tue Jul 23, 5:10am EDT

Tue Jul 23, 4:10am EDT

Tue Jul 23, 2:10am EDT

Tue Jul 23, 1:10am EDT

Tue Jul 23, 12:10am EDT

Mon Jul 22, 11:10pm EDT

Mon Jul 22, 10:10pm EDT

Mon Jul 22, 9:10pm EDT

Mon Jul 22, 8:10pm EDT

Mon Jul 22, 7:10pm EDT

Mon Jul 22, 6:10pm EDT

Mon Jul 22, 5:10pm EDT

Mon Jul 22, 4:10pm EDT

Mon Jul 22, 3:10pm EDT

Mon Jul 22, 2:10pm EDT

Mon Jul 22, 1:10pm EDT

Mon Jul 22, 12:10pm EDT

Mon Jul 22, 11:10am EDT

Mon Jul 22, 10:10am EDT

Mon Jul 22, 9:10am EDT

Mon Jul 22, 8:10am EDT

Mon Jul 22, 7:10am EDT

Mon Jul 22, 6:10am EDT

Mon Jul 22, 5:10am EDT

Mon Jul 22, 4:10am EDT

Mon Jul 22, 3:10am EDT

Mon Jul 22, 2:10am EDT

Mon Jul 22, 1:10am EDT

Mon Jul 22, 12:10am EDT

Sun Jul 21, 11:10pm EDT

Sun Jul 21, 10:10pm EDT

Sun Jul 21, 9:10pm EDT

Sun Jul 21, 8:10pm EDT

Sun Jul 21, 7:10pm EDT

Sun Jul 21, 6:10pm EDT

Sun Jul 21, 5:10pm EDT

Sun Jul 21, 4:10pm EDT

Sun Jul 21, 3:10pm EDT

Sun Jul 21, 2:10pm EDT

Sun Jul 21, 1:10pm EDT

Sun Jul 21, 12:10pm EDT

Sun Jul 21, 11:10am EDT

Sun Jul 21, 10:10am EDT

Sun Jul 21, 9:10am EDT

Sun Jul 21, 8:10am EDT

Sun Jul 21, 7:10am EDT

Sun Jul 21, 6:10am EDT

Sun Jul 21, 5:10am EDT

Sun Jul 21, 4:10am EDT

Sun Jul 21, 3:10am EDT

Sun Jul 21, 2:10am EDT

Sun Jul 21, 1:10am EDT

Sun Jul 21, 12:10am EDT

Sat Jul 20, 11:10pm EDT

Sat Jul 20, 10:10pm EDT

Sat Jul 20, 9:10pm EDT

Sat Jul 20, 8:10pm EDT

Sat Jul 20, 7:10pm EDT

Sat Jul 20, 6:10pm EDT

Sat Jul 20, 5:10pm EDT

Sat Jul 20, 4:10pm EDT

Sat Jul 20, 3:10pm EDT

Sat Jul 20, 2:10pm EDT

Sat Jul 20, 1:10pm EDT

Sat Jul 20, 12:10pm EDT

Sat Jul 20, 11:10am EDT

Sat Jul 20, 10:10am EDT

Sat Jul 20, 9:10am EDT

Sat Jul 20, 8:10am EDT

Sat Jul 20, 7:10am EDT

Sat Jul 20, 6:10am EDT

Sat Jul 20, 5:10am EDT

Sat Jul 20, 4:10am EDT

Sat Jul 20, 3:10am EDT

Sat Jul 20, 2:10am EDT

Sat Jul 20, 1:10am EDT

Sat Jul 20, 12:10am EDT

Fri Jul 19, 11:10pm EDT

Fri Jul 19, 10:10pm EDT

Fri Jul 19, 9:10pm EDT

Fri Jul 19, 8:10pm EDT

Fri Jul 19, 7:10pm EDT

Fri Jul 19, 6:10pm EDT

Fri Jul 19, 5:10pm EDT

Fri Jul 19, 4:10pm EDT

Fri Jul 19, 3:10pm EDT

Fri Jul 19, 2:10pm EDT

Fri Jul 19, 1:10pm EDT

Fri Jul 19, 12:10pm EDT

Fri Jul 19, 11:10am EDT

Fri Jul 19, 10:10am EDT

Fri Jul 19, 9:10am EDT

Fri Jul 19, 8:10am EDT

Fri Jul 19, 7:10am EDT

Fri Jul 19, 6:10am EDT

Fri Jul 19, 5:10am EDT

Fri Jul 19, 4:10am EDT

Fri Jul 19, 3:10am EDT

Fri Jul 19, 2:10am EDT

Fri Jul 19, 1:10am EDT

Fri Jul 19, 12:10am EDT

Thu Jul 18, 11:10pm EDT

Thu Jul 18, 10:10pm EDT

Thu Jul 18, 9:10pm EDT

Thu Jul 18, 8:10pm EDT

Thu Jul 18, 7:10pm EDT

Thu Jul 18, 6:10pm EDT

Thu Jul 18, 5:10pm EDT

Thu Jul 18, 4:10pm EDT

Thu Jul 18, 3:10pm EDT

Thu Jul 18, 2:10pm EDT

Thu Jul 18, 1:10pm EDT

Thu Jul 18, 12:10pm EDT